FW8270 Weather Reports


time (UTC)temp
F
wind
direction
speed
knots
gust
knots
rain 1hr
in
rain 24hr
in
rain mn
in
humidity
%
barometer
mb
20260505153048 55 0 0.0 0.9 0.00 0.00 0.00 84 1017.3
20260505151544 55 0 0.0 0.9 0.00 0.00 0.00 83 1017.2
20260505124539 54 0 0.0 0.9 0.00 0.00 0.00 85 1015.8
20260505123036 54 0 0.9 7.0 0.00 0.00 0.00 85 1015.7
20260505121541 54 0 0.0 5.2 0.00 0.00 0.00 85 1015.6
20260505120041 54 0 0.0 2.6 0.00 0.00 0.00 86 1015.5
20260505114541 54 0 0.0 5.2 0.00 0.00 0.00 86 1015.6
20260505113042 54 186 0.9 5.2 0.00 0.00 0.00 86 1015.5
20260505111544 54 0 0.0 3.5 0.00 0.00 0.00 86 1015.6
20260505101544 53 0 0.0 3.5 0.00 0.00 0.00 87 1015.0
20260505100041 53 0 0.0 0.9 0.00 0.00 0.00 87 1015.0
20260505094537 53 0 0.0 0.9 0.00 0.00 0.00 86 1014.8
20260505093046 54 0 0.0 0.9 0.00 0.00 0.00 86 1014.7
20260505091535 54 0 0.0 2.6 0.00 0.00 0.00 86 1014.6
20260505090041 54 0 0.0 2.6 0.00 0.00 0.00 85 1014.5
20260505084541 55 0 0.0 1.7 0.00 0.00 0.00 84 1014.5
20260505083055 55 0 0.0 2.6 0.00 0.00 0.00 84 1014.2
20260505081540 56 0 0.0 1.7 0.00 0.00 0.00 83 1014.3
20260505080041 56 0 0.0 0.9 0.00 0.00 0.00 82 1014.1
20260505074536 57 0 0.0 0.9 0.00 0.00 0.00 81 1014.0
20260505073042 57 0 0.0 0.9 0.00 0.00 0.00 80 1013.9
20260505071540 58 165 0.0 0.9 0.00 0.00 0.00 79 1013.8
20260505070054 59 0 0.0 3.5 0.00 0.00 0.00 78 1013.6
20260505064540 59 0 0.0 0.9 0.00 0.00 0.00 77 1013.2
20260505063038 60 0 0.0 2.6 0.00 0.00 0.00 76 1013.1
20260505061552 60 175 0.0 1.7 0.00 0.00 0.00 77 1013.1
20260505060048 59 0 0.0 0.0 0.00 0.00 0.00 76 1012.8
20260505054547 61 0 0.0 0.0 0.00 0.00 0.00 73 1012.9
20260505053042 61 0 0.0 0.9 0.00 0.00 0.00 72 1012.8
20260505051541 61 0 0.0 0.9 0.00 0.00 0.00 70 1012.5
20260505041544 64 0 0.0 0.0 0.00 0.00 0.00 62 1012.0
20260505040051 65 0 0.0 0.9 0.00 0.00 0.00 60 1011.8
20260505034542 67 0 0.0 1.7 0.00 0.00 0.00 57 1011.6
20260505033032 68 0 0.0 1.7 0.00 0.00 0.00 56 1011.3
20260505031549 69 42 0.0 1.7 0.00 0.00 0.00 55 1011.1
20260505030042 71 360 0.0 2.6 0.00 0.00 0.00 53 1011.1
20260505024537 72 355 0.0 1.7 0.00 0.00 0.00 49 1010.8
20260505023037 73 319 0.9 4.3 0.00 0.00 0.00 47 1010.8
20260505021537 74 329 0.9 5.2 0.00 0.00 0.00 47 1010.7
20260505020040 74 0 0.0 2.6 0.00 0.00 0.00 49 1010.8
20260505014544 75 0 0.0 4.3 0.00 0.00 0.00 48 1010.9
20260505013037 76 355 0.0 6.1 0.00 0.00 0.00 47 1010.9
20260505011539 77 0 0.9 4.3 0.00 0.00 0.00 44 1010.8
20260505010045 78 0 0.9 3.5 0.00 0.00 0.00 39 1010.8
20260505004543 78 329 0.0 3.5 0.00 0.00 0.00 40 1010.7
20260505003042 78 197 0.0 5.2 0.00 0.00 0.00 43 1010.7
20260505001541 78 5 0.9 2.6 0.00 0.00 0.00 41 1010.9
20260505000048 78 63 0.0 4.3 0.00 0.00 0.00 44 1010.8
20260504234536 78 93 0.0 2.6 0.00 0.00 0.00 43 1011.1
20260504233041 78 311 0.9 4.3 0.00 0.00 0.00 43 1011.1
20260504231532 78 130 0.0 3.5 0.00 0.00 0.00 43 1011.1
20260504230037 78 145 0.0 4.3 0.00 0.00 0.00 43 1011.1
20260504224537 78 0 0.0 3.5 0.00 0.00 0.00 42 1011.2
20260504223042 78 0 0.0 3.5 0.00 0.00 0.00 43 1011.2
20260504221532 78 0 0.0 4.3 0.00 0.00 0.00 45 1011.6
20260504220046 78 0 0.0 2.6 0.00 0.00 0.00 45 1011.7
20260504214538 78 199 0.0 1.7 0.00 0.00 0.00 43 1011.8
20260504213045 78 355 0.9 4.3 0.00 0.00 0.00 40 1011.8
20260504211543 77 144 0.9 4.3 0.00 0.00 0.00 39 1012.0
20260504210034 77 186 0.9 6.1 0.00 0.00 0.00 38 1012.0
20260504204543 77 161 3.5 8.7 0.00 0.00 0.00 38 1011.9
20260504203037 76 234 0.0 2.6 0.00 0.00 0.00 39 1011.9
20260504201533 76 167 0.0 2.6 0.00 0.00 0.00 40 1012.0
20260504200041 76 0 0.0 1.7 0.00 0.00 0.00 42 1012.1
20260504194534 77 0 0.0 4.3 0.00 0.00 0.00 43 1012.0
20260504193053 77 0 1.7 7.0 0.00 0.00 0.00 41 1012.1
20260504191537 76 0 0.0 3.5 0.00 0.00 0.00 44 1012.1
20260504190038 76 288 0.0 3.5 0.00 0.00 0.00 45 1012.2
20260504184534 75 0 0.0 5.2 0.00 0.00 0.00 43 1012.4
20260504183055 74 294 0.0 3.5 0.00 0.00 0.00 45 1012.5
20260504181538 74 332 0.9 5.2 0.00 0.00 0.00 44 1012.5
20260504180058 74 14 0.9 4.3 0.00 0.00 0.00 45 1012.3
20260504174536 74 0 0.9 3.5 0.00 0.00 0.00 49 1012.4
20260504173032 72 75 0.0 1.7 0.00 0.00 0.00 53 1012.3
20260504171538 71 186 0.0 5.2 0.00 0.00 0.00 56 1012.4